Location: Unspecified
(40.7945°N, 111.1337°W)
Time: 08:16:19
(UTC-06:00)

CZ-3 Stage 3 - Pass Details

Date: 29 May 2019
Orbit: 500 x 34691 km, 30.5° (Epoch: 19 June)

Event Time Altitude Azimuth Distance (km) Brightness Sun altitude
Exits shadow 00:27:27 30° 212° (SSW) 2,606 4.8 -26.4°
Maximum altitude 00:32:20 51° 151° (SSE) 3,104 5.1 -26.6°
Drops below altitude 10° 08:24:53 10° 147° (SSE) 28,690 10.9 25.6°
Sets 09:11:00 0° 146° (SSE) 22,605 10.4 34.3°
